Location: Aurensan
(43.3058°N, 0.0863°E)
Time: 19:04:01
(UTC+00:00)

Daily predictions for brighter satellites

Satellite Brightness Start Highest point End
(mag) Time Altitude Azimuth Time Altitude Azimuth Time Altitude Azimuth
Cosmos 1814 Rocket 4.0 19:33:15 10° NNW 19:38:31 88° ENE 19:43:41 10° SSE
Meteor 2-15 4.5 19:34:14 10° S 19:40:16 85° E 19:46:23 10° N
SL-4 R/B 2.5 19:36:12 10° NW 19:40:31 63° NNE 19:45:07 10° ESE
X-37B 1.0 19:40:11 10° W 19:43:22 64° N 19:46:34 10° ENE
Cosmos 540 Rocket 4.5 19:41:15 10° NNW 19:46:08 47° WSW 19:51:00 10° S
IRS-1A Rocket 4.5 19:44:52 10° SSE 19:50:31 63° ENE 19:56:19 10° N
SPOT 3 Rocket 4.4 19:49:24 10° SE 19:53:57 33° ENE 19:58:32 10° N
CZ-4 R/B 4.4 19:52:40 10° SW 19:54:53 14° W 19:57:06 10° WNW
ERS-2 3.0 19:52:02 10° N 19:55:36 53° WNW 19:59:07 10° SSW
Cosmos 1844 4.1 19:50:20 10° S 19:55:42 43° ESE 20:01:03 10° NE
Resurs 1-3 3.8 19:51:43 10° SSE 19:55:59 55° ENE 20:00:18 10° N
Cosmos 968 Rocket 3.5 19:51:24 10° S 19:56:33 60° ESE 20:01:42 10° NNE
Cosmos 1743 Rocket 3.5 19:53:15 10° N 19:57:36 70° E 20:01:56 10° SSE
BREEZE-M DEB (TANK) 3.9 19:53:27 10° WNW 19:57:45 75° N 20:04:59 10° E
ATLAS 5 CENTAUR R/B 3.4 19:55:01 10° NNW 19:59:59 33° NE 20:05:40 10° ESE
BREEZE M DEB (TANK) 4.1 19:59:40 10° WSW 20:03:05 67° NNW 20:13:34 10° ENE
Cosmos 1486 Rocket 4.1 19:58:54 10° S 20:04:05 56° ESE 20:09:19 10° NNE
Intercosmos 25 Rocket 4.1 20:00:24 10° N 20:06:57 65° ENE 20:11:01 10° SSE
IGS 5A 4.2 20:04:31 12° SE 20:07:52 35° ENE 20:11:40 10° N
Cosmos 1500 Rocket 3.6 20:05:10 10° N 20:09:35 85° W 20:13:56 10° S
Cosmos 2221 3.6 20:05:44 10° SSW 20:09:52 48° WNW 20:14:05 10° N
S3M 4.2 20:04:22 10° SSE 20:10:34 56° E 20:16:45 10° NNE
BREEZE-M R/B 1.6 20:08:36 10° WSW 20:11:28 78° SSE 20:13:53 10° ENE
USA 186 3.8 20:10:17 10° SSW 20:12:21 21° W 20:14:21 10° NW
FALCON 9 DEB 3.3 20:15:13 10° WNW 20:18:10 50° SW 20:20:03 19° SSE
Cosmos 1933 3.7 20:17:12 10° SSE 20:21:03 45° E 20:24:55 10° NNE
USA 245 4.3 20:23:48 13° ENE 20:23:48 13° ENE 20:24:52 10° NE
FALCON 9 DEB 3.7 20:21:32 10° WNW 20:24:24 39° SW 20:26:04 20° SSE
Cosmos 1242 Rocket 3.0 20:24:03 16° SSE 20:26:35 41° E 20:29:57 10° NNE
OBJECT-B 2.9 20:24:10 10° SSW 20:26:56 26° W 20:29:45 10° NW
Cosmos 1553 Rocket 4.2 20:23:07 10° SSW 20:29:12 74° W 20:35:26 10° N
Cosmos 1437 Rocket 3.0 20:26:41 10° SSW 20:30:30 71° W 20:34:26 10° N
BREEZE M DEB (TANK) 4.0 20:25:32 10° WNW 20:31:19 33° N 20:33:48 10° ENE
FALCON 9 DEB 3.5 20:30:20 10° WNW 20:33:16 44° SW 20:34:36 25° SSE
Resurs 01 Rocket 1.6 20:29:42 15° SSE 20:33:19 80° ENE 20:37:47 10° N
Spot 2 Rocket 4.3 20:34:12 20° ESE 20:37:03 36° ENE 20:41:38 10° N
DELTA 2 R/B (1) 3.8 20:33:03 10° W 20:38:29 53° S 20:41:51 22° ESE
Sich 1 2.9 20:35:33 10° N 20:39:53 84° E 20:43:00 19° S
Cosmos 2082 Rocket 4.3 20:39:42 10° N 20:42:49 15° NE 20:45:53 10° ENE
Meteor 1-20 Rocket 4.1 20:37:21 10° N 20:43:01 80° E 20:47:11 18° SSE
BREEZE-M DEB (TANK) 3.9 20:42:46 10° W 20:44:38 19° SSW 20:45:33 17° S
Cosmos 1782 3.1 20:43:16 26° SSE 20:45:08 45° E 20:48:58 10° NNE
CZ-4C R/B 3.8 20:38:42 10° NNW 20:45:19 40° NE 20:51:18 16° ESE
Cosmos 1500 4.4 20:43:17 10° NNE 20:46:28 25° ENE 20:47:10 24° E
ERS-1 Rocket 3.9 20:50:52 24° ESE 20:53:00 33° ENE 20:57:29 10° N
Cosmos 1503 Rocket 3.9 20:49:43 10° SSW 20:54:53 89° ESE 21:00:07 10° NNE
SPOT 5 3.9 20:52:52 24° ESE 20:54:59 34° ENE 20:59:40 10° N
Intercosmos 24 4.5 20:53:30 10° SSW 20:57:23 52° W 21:00:52 10° N
Cosmos 1151 Rocket 2.9 20:58:03 25° S 21:00:31 72° E 21:04:54 10° NNE
Cosmos 1777 Rocket 4.4 20:58:39 29° SSE 21:00:33 39° ESE 21:05:22 10° NE
USA 290 2.4 20:58:55 10° NNW 21:02:08 66° WSW 21:02:58 44° S
Terra 3.0 21:02:22 24° E 21:03:49 28° ENE 21:07:52 10° N
Cosmos 1602 3.6 21:01:04 10° N 21:04:56 89° E 21:06:20 38° S
Cosmos 2278 Rocket 2.8 21:05:44 31° SE 21:07:02 34° ESE 21:12:06 10° NE
CZ-2C R/B 4.0 21:09:05 10° N 21:13:32 66° WNW 21:17:35 13° SSW
Cosmos 1515 Rocket 3.8 21:17:35 44° ESE 21:18:16 49° E 21:22:32 10° NNE
Cosmos 1844 Rocket 4.3 21:14:20 10° WSW 21:19:24 35° NW 21:24:32 10° N
SPOT 1/Viking Rocket 3.7 21:16:47 28° S 21:19:33 72° WSW 21:24:46 10° NNW
Cosmos 2084 3.2 21:17:53 31° SSW 21:19:43 67° SE 21:23:55 10° NE
SL-4 R/B 3.5 21:16:05 10° WNW 21:20:00 29° SW 21:21:08 26° SSW
X-37B 0.6 21:16:57 10° WNW 21:20:09 80° N 21:20:09 80° N
ARIANE 5 R/B 2.5 21:20:40 45° SSE 21:21:57 87° ENE 21:26:19 10° NNW
SWARM A 4.2 21:19:53 10° N 21:23:01 67° ENE 21:23:01 67° ENE
Cosmos 1437 3.1 21:25:46 51° N 21:25:46 51° N 21:28:02 10° N
JB-3 4.1 21:23:16 10° NNE 21:27:12 87° ESE 21:27:56 57° S
Cosmos 1633 Rocket 3.5 21:25:26 10° NNW 21:29:45 58° W 21:31:23 35° SSW
Cosmos 1812 2.5 21:31:31 72° ESE 21:31:39 73° E 21:35:30 10° NNE
Cosmos 1470 Rocket 3.6 21:34:32 10° N 21:39:02 82° W 21:39:56 57° S
Cosmos 1328 Rocket 4.2 21:36:50 27° SW 21:39:03 54° W 21:43:25 10° N
Cosmos 2184 Rocket 4.1 21:33:18 10° N 21:39:28 58° ENE 21:41:19 42° SE
Meteor 1-5 Rocket 4.0 21:35:11 10° N 21:40:36 78° E 21:42:00 50° SSE
ATLAS 5 CENTAUR R/B 2.7 21:39:16 10° NW 21:44:56 57° WSW 21:47:13 38° S
CARTOSAT-1 3.9 21:44:08 46° SSW 21:45:04 57° W 21:49:20 10° NNW
Cosmos 2074 Rocket 4.0 21:41:10 10° N 21:47:28 70° E 21:49:23 46° SSE
NOSS 3-3 (A) 4.2 21:44:57 10° SW 21:50:38 66° NW 21:57:09 10° NNE
NOSS 3-3 (C) 4.2 21:45:03 10° SW 21:50:45 66° NW 21:57:16 10° NNE
Cosmos 1666 2.8 21:48:55 10° N 21:52:12 65° NNE 21:52:12 65° NNE
Nadezhda 1 Rocket 4.2 21:51:52 45° SE 21:53:10 52° E 21:59:14 10° NNE
Cosmos 1933 Rocket 3.3 21:49:14 10° N 21:53:36 88° W 21:53:49 81° S
Cosmos 1833 Rocket 2.6 21:48:46 10° NNW 21:54:27 82° ENE 21:55:42 56° SE
ATLAS 2AS CENTAUR R/B 3.9 21:49:46 10° NNW 21:56:31 35° NE 22:00:31 20° E
BREEZE-M DEB (TANK) 4.2 21:57:16 10° NW 21:57:58 17° NNW 21:57:58 17° NNW
Cosmos 1538 Rocket 3.9 21:57:44 10° NNW 22:03:09 89° ENE 22:03:56 66° SSE
Iridium 4 Rocket 3.8 22:01:47 45° SSW 22:03:35 76° W 22:09:30 10° N
USA 305 3.9 21:59:55 10° NW 22:03:57 39° NNE 22:04:41 35° NE
Cosmos 1610 Rocket 4.4 22:03:24 10° N 22:09:31 66° E 22:10:38 55° SE
SJ 16-02 1.4 22:15:15 74° WNW 22:15:16 74° WNW 22:19:43 10° NNE
Cosmos 158 Rocket 3.8 22:10:31 10° NNW 22:15:23 69° ENE 22:15:27 69° ENE
Cosmos 2228 Rocket 3.1 22:17:34 75° N 22:17:34 75° N 22:21:40 10° N
Meteor 1-27 Rocket 3.6 22:18:37 66° SSE 22:19:21 76° E 22:25:15 10° NNE
Cosmos 1680 Rocket 4.1 22:15:55 10° N 22:21:01 44° ENE 22:21:27 43° ENE
USA 306 3.6 22:18:59 10° NW 22:23:05 48° NNE 22:23:05 48° NNE
COSMOS 2406 3.4 22:19:33 10° NNW 22:25:07 58° WSW 22:25:47 54° SW
Cosmos 2082 Rocket 2.0 22:22:13 10° NNW 22:27:51 78° ENE 22:28:19 72° ESE
ERS-1 Rocket 4.2 22:30:51 28° WSW 22:31:46 30° W 22:36:12 10° NW
Milstar 3 4.4 22:22:53 10° WSW 22:29:42 27° SSW 22:29:42 27° SSW
SPOT 5 4.2 22:32:05 28° WSW 22:33:02 31° W 22:37:36 10° NNW
CZ-4C R/B 3.2 22:27:00 10° NW 22:34:22 63° WSW 22:36:28 49° S
Cosmos 1271 Rocket 4.0 22:35:28 38° WNW 22:35:28 38° WNW 22:39:01 10° N
Terra 3.0 22:41:15 33° WSW 22:41:27 33° W 22:45:46 10° NNW
Meteor 1-11 Rocket 4.1 22:38:33 10° NNW 22:44:25 59° W 22:45:14 54° SW
Cosmos 1295 Rocket 4.4 22:38:27 10° N 22:44:48 78° W 22:45:45 65° SSW
USA 307 3.8 22:44:17 10° NW 22:47:31 48° NNW 22:47:31 48° NNW
Cosmos 1340 Rocket 3.9 22:46:49 10° N 22:49:40 44° N 22:49:40 44° N
Cosmos 2278 Rocket 3.5 22:47:29 19° WSW 22:51:02 37° WNW 22:56:17 10° N
Spot 4 4.1 22:53:27 64° NNE 22:53:27 64° NNE 22:57:48 10° N
Cosmos 923 Rocket 4.1 22:50:58 10° NNW 22:55:53 70° WNW 22:55:53 70° WNW
Cosmos 1898 Rocket 3.6 22:57:39 72° NE 22:57:39 72° NE 23:02:27 10° NNE
Cosmos 1536 4.3 22:56:47 10° NNW 22:59:30 33° NW 22:59:30 33° NW
Cosmos 2369 Rocket 3.6 23:03:27 25° ENE 23:03:27 25° ENE 23:06:41 10° NE
USA 308 4.1 22:57:44 10° NW 23:00:30 39° NW 23:00:30 39° NW
Meteor 2-9 Rocket 4.3 23:04:52 10° N 23:10:35 65° ENE 23:10:35 65° ENE
Cosmos 1943 Rocket 2.5 23:11:54 57° ENE 23:11:54 57° ENE 23:16:39 10° NNE
SL-8 Rocket 3.9 23:04:49 10° N 23:11:12 81° E 23:11:34 77° SE
ALOS 2 3.5 23:16:05 46° NNE 23:16:05 46° NNE 23:19:19 10° N
DNEPR-1 R/B 4.4 23:19:56 58° ENE 23:19:56 58° ENE 23:24:04 10° NE
Meteor 2-4 Rocket 4.3 23:20:31 47° ENE 23:20:31 47° ENE 23:25:28 10° NNE
Cosmos 44 3.7 23:15:45 10° NNW 23:20:48 67° NNE 23:20:48 67° NNE
Meteor 1-18 Rocket 4.2 23:33:04 80° NNW 23:33:04 80° NNW 23:38:25 10° N
NOSS 3-4 (A) 4.2 23:27:22 10° NW 23:34:12 48° WSW 23:34:27 48° SW
NOSS 3-4 (C) 4.2 23:27:28 10° NW 23:34:18 49° WSW 23:34:34 49° SW
Cosmos 1238 Rocket 4.0 23:30:34 10° NNW 23:36:39 60° W 23:36:39 60° W
SL-24 R/B - RUBIN 2 4.4 23:33:08 10° NW 23:37:29 56° NW 23:37:29 56° NW
SeaSat 1 3.4 23:35:00 10° NE 23:38:19 38° ENE 23:38:19 38° ENE
Cosmos 864 Rocket 4.3 23:33:45 10° N 23:39:55 78° W 23:39:57 78° W
Cosmos 1959 Rocket 4.4 23:36:34 10° NNW 23:42:47 72° W 23:42:51 72° W
USA 215 3.4 23:42:20 43° ESE 23:44:34 69° NE 23:51:04 10° NW
Cosmos 2297 4.2 23:45:51 49° W 23:46:23 51° WNW 23:51:56 10° NNE
ATLAS 2AS CENTAUR R/B 2.7 23:40:46 10° NW 23:47:57 63° WSW 23:47:57 63° WSW
Cosmos 2181 Rocket 4.3 23:52:11 50° W 23:52:41 52° WNW 23:58:40 10° N
